Regional Weather Roundup
Issued by NWS

Home | Current Version | Previous Version | Text Only | Print | Product List | Glossary Off
Versions: 1 2 3 4 5 6 7 8 9 10 11 12 13 14 15 16 17 18 19 20 21 22 23 24 25 26 27 28 29 30 31 32 33 34 35 36 37 38 39 40 41 42 43 44 45 46 47 48 49 50

000
ASUS43 KIND 111509
RWRIN

WEATHER ROUNDUP FOR INDIANA
NATIONAL WEATHER SERVICE INDIANAPOLIS IN
1000 AM EST THU FEB 11 2016

NOTE: "FAIR" INDICATES FEW OR NO CLOUDS BELOW 12,000 FEET WITH NO
SIGNIFICANT WEATHER AND/OR OBSTRUCTIONS TO VISIBILITY.

* - STATION DOES NOT REPORT WEATHER SUCH AS PRECIPITATION OR FOG.

+ - STATION NOT QUALITY CONTROLLED BY THE NATIONAL WEATHER SERVICE.
    USE DATA WITH CAUTION...ESPECIALLY DEWPOINT AND RELATIVE
    HUMIDITY OBSERVATIONS.

INZ001>003-010>013-019-020-111600-
NORTHWEST INDIANA

CITY           SKY/WX    TMP DP  RH WIND       PRES   REMARKS
KNOX *+        CLOUDY    14   9  79 W9        30.27R WCI   2
LA PORTE +     LGT SNOW  19  11  69 NW9       30.26R WCI   9
MICHIGAN CITY+ CLOUDY    19   9  63 NW6G16    30.27R WCI  11
MONTICELLO +   SUNNY     15   2  56 NW9       30.28R WCI   3
RENSSELAER +   SUNNY     18   1  49 NW10      30.30R WCI   6
VALPARAISO     CLOUDY    14   6  70 W12       30.27R WCI   0

$$

LMZ046-743>745-111600-
SOUTHERN LAKE MICHIGAN

STATION/POSITION TIME  TEMP    WIND        PRES    WAVE
                       AIR SEA DIR/SP/G            HT
                 (UTC) (F)     (DEG/KT/KT) (MB)    (FT)
MICHIGAN CITY    1400   17     310/ 12/ 14   N/A

$$

INZ004-005-014>016-021>024-111600-
NORTH CENTRAL INDIANA

CITY           SKY/WX    TMP DP  RH WIND       PRES   REMARKS
ELKHART        CLOUDY    16  10  79 CALM      30.25R
GOSHEN         CLOUDY    15  10  80 CALM      30.24R
LOGANSPORT +   SUNNY     18   3  53 NW8       30.29R WCI   7
PERU/GRISSOM   SUNNY     13   5  72 W8        30.26R WCI   1
ROCHESTER +    MOSUNNY   18   3  53 W7        30.27R WCI   8
SOUTH BEND     LGT SNOW  16  10  77 NW7       30.25R WCI   6
WARSAW +       FLURRIES  18  12  79 NW5       30.24R WCI  11

$$

INZ006>009-017-018-025>027-111600-
NORTHEAST INDIANA

CITY           SKY/WX    TMP DP  RH WIND       PRES   REMARKS
ANGOLA *+      CLOUDY    16   9  73 NW5       30.20R WCI   9
AUBURN +       FLURRIES  18  12  79 W6        30.24R WCI   9
FORT WAYNE     FLURRIES  19   9  65 W7        30.26R WCI  10
HUNTINGTON +   FLURRIES  13   4  66 W6        30.26R WCI   4

$$

INZ028-029-035-036-043>045-051>053-111600-
WEST CENTRAL INDIANA

CITY           SKY/WX    TMP DP  RH WIND       PRES   REMARKS
GREENCASTLE +  SUNNY     14   0  52 NW5       30.30R WCI   6
LAFAYETTE      SUNNY     15   5  64 NW9       30.31R WCI   3
TERRE HAUTE    SUNNY     16   6  65 N6        30.32R WCI   7

$$

INZ030>032-037>040-046>048-054>057-064-065-111600-
CENTRAL INDIANA

CITY           SKY/WX    TMP DP  RH WIND       PRES   REMARKS
ANDERSON       SUNNY     14   7  73 W8        30.27R WCI   3
COLUMBUS       SUNNY     18  10  73 CALM      30.30R
FISHERS *+     SUNNY     16   9  73 NW5       30.29  WCI   9
FRANKFORT +    SUNNY     16   2  54 W5        30.29R WCI   9
GREENWOOD *+   SUNNY     18   9  68 NW3       30.28R
INDIANAPOLIS   MOSUNNY   16   5  62 NW3       30.28R
-EAGLE CREEK   SUNNY     16   5  62 N5        30.28R WCI   9
KOKOMO *+      SUNNY     14   3  62 NW10      30.27R WCI   1
MARION +       MOSUNNY   12   1  60 W8        30.27R WCI   0
MT COMFORT *+  SUNNY     16   7  67 N5        30.28R WCI   9
SHELBYVILLE    SUNNY     17   6  62 NW5       30.28R WCI  10
ZIONSVILLE +   SUNNY     14   6  70 NW7       30.28R WCI   4

$$

INZ033-034-041-042-049-050-058-059-111600-
EAST CENTRAL INDIANA

CITY           SKY/WX    TMP DP  RH WIND       PRES   REMARKS
MUNCIE         PTSUNNY   16   6  65 W6        30.26R WCI   7

$$

INZ060-061-067>069-081>083-085>088-111600-
SOUTHWEST INDIANA

CITY           SKY/WX    TMP DP  RH WIND       PRES   REMARKS
EVANSVILLE     CLOUDY    25  15  66 N9        30.32R WCI  15
HUNTINGBURG *+ CLOUDY    21  10  63 NE8       30.31R WCI  12
WASHINGTON +   SUNNY     20   7  56 CALM      30.32R

$$

INZ062-063-066-070>080-084-089>092-111600-
SOUTH CENTRAL AND SOUTHEAST INDIANA

CITY           SKY/WX    TMP DP  RH WIND       PRES   REMARKS
BEDFORD +      SUNNY     19  10  68 NW3       30.30R
BLOOMINGTON    SUNNY     18   9  68 N3        30.28R
MADISON *+     SUNNY     19  10  68 CALM      30.30R
NORTH VERNON + SUNNY     16  10  79 CALM      30.30R
SEYMOUR +      SUNNY     21  10  63 CALM      30.31R

$$




USA.gov is the U.S. government's official web portal to all federal, state and local government web resources and services.